Eugene, OR

4:17 PM PST on December 07, 2019 (GMT -0800)
Mahlon Sweet

Weather History for KEUG - September, 2019

Change the Weather History Date:

Saturday, September 21, 2019

  Actual Average Record
Temperature  
Mean Temperature 63 °F 61 °F  
Max Temperature 74 °F 76 °F 95 °F (1974)
Min Temperature 51 °F 46 °F 34 °F (1955)
Degree Days  
Heating Degree Days 2 5  
Month to date heating degree days 39 65  
Since 1 July heating degree days 51 132  
Cooling Degree Days 0 1  
Month to date cooling degree days 43 28  
Year to date cooling degree days 351 236  
Growing Degree Days 14 (Base 50)    
Moisture  
Dew Point 54 °F    
Average Humidity 73    
Maximum Humidity 96    
Minimum Humidity 49    
Precipitation  
Precipitation 0.00 in 0.05 in 1.12 in (1972)
Month to date precipitation 4.04 0.81  
Year to date precipitation 27.25 26.82  
Sea Level Pressure  
Sea Level Pressure 30.11 in    
Wind  
Wind Speed 4 mph (NE)    
Max Wind Speed 12 mph    
Max Gust Speed 14 mph    
Visibility 10 miles    
Events      
T = Trace of Precipitation, MM = Missing Value Source: NWS Daily Summary

Daily Weather History Graph

Daily Weather History Graph

Search for Another Location

Airport or City:

Astronomy

Sep. 21, 2019 Rise Set
Actual Time 6:58 AM PDT 7:12 PM PDT
Civil Twilight 6:29 AM PDT 7:41 PM PDT
Nautical Twilight 5:55 AM PDT 8:15 PM PDT
Astronomical Twilight 5:21 AM PDT 8:49 PM PDT
Moon 11:40 PM PDT (9/21) 2:24 PM PDT (9/21)
Length of Visible Light 13h 11m
Length of Day
12h 13m
Waning Gibbous, 53% of the Moon is Illuminated
Sep 21
Waning Gibbous
Sep 21
Last Quarter
Sep 28
New
Oct 5
First Quarter
Oct 13
Full

Hourly Weather History & Observations

Time (PDT) Temp. Dew Point Humidity Pressure Visibility Wind Dir Wind Speed Gust Speed Precip Events Conditions
12:54 AM 55.9 °F 53.1 °F 90% 30.17 in 10.0 mi Calm Calm - N/A   Clear
1:54 AM 55.0 °F 52.0 °F 89% 30.17 in 10.0 mi Calm Calm - N/A   Clear
2:54 AM 54.0 °F 52.0 °F 93% 30.17 in 10.0 mi Calm Calm - N/A   Clear
3:47 AM 52.0 °F 48.9 °F 89% 30.18 in 10.0 mi SSE 4.6 mph - N/A   Mostly Cloudy
3:54 AM 52.0 °F 50.0 °F 93% 30.18 in 10.0 mi SSE 4.6 mph - N/A   Mostly Cloudy
4:54 AM 55.9 °F 53.1 °F 90% 30.17 in 10.0 mi SSE 3.5 mph - N/A   Overcast
5:54 AM 55.9 °F 52.0 °F 87% 30.17 in 10.0 mi Variable 3.5 mph - N/A   Overcast
6:54 AM 55.0 °F 52.0 °F 89% 30.16 in 10.0 mi South 5.8 mph - N/A   Overcast
6:57 AM 55.0 °F 52.0 °F 89% 30.16 in 10.0 mi South 4.6 mph - N/A   Mostly Cloudy
7:54 AM 55.0 °F 52.0 °F 89% 30.17 in 10.0 mi South 4.6 mph - N/A   Mostly Cloudy
8:54 AM 57.0 °F 52.0 °F 83% 30.17 in 10.0 mi Calm Calm - N/A   Mostly Cloudy
9:42 AM 61.0 °F 53.1 °F 75% 30.16 in 10.0 mi Calm Calm - N/A   Scattered Clouds
9:54 AM 63.0 °F 54.0 °F 72% 30.16 in 10.0 mi Calm Calm - N/A   Scattered Clouds
10:54 AM 64.0 °F 54.0 °F 70% 30.15 in 10.0 mi Calm Calm - N/A   Scattered Clouds
11:54 AM 66.9 °F 55.9 °F 68% 30.14 in 10.0 mi North 3.5 mph - N/A   Partly Cloudy
12:54 PM 70.0 °F 55.0 °F 59% 30.12 in 10.0 mi NNE 4.6 mph - N/A   Partly Cloudy
1:54 PM 71.1 °F 55.0 °F 57% 30.10 in 10.0 mi Variable 5.8 mph - N/A   Partly Cloudy
2:54 PM 73.0 °F 55.0 °F 53% 30.08 in 10.0 mi North 6.9 mph - N/A   Partly Cloudy
3:54 PM 73.0 °F 54.0 °F 51% 30.06 in 10.0 mi North 10.4 mph - N/A   Partly Cloudy
4:54 PM 73.0 °F 55.0 °F 53% 30.04 in 10.0 mi North 8.1 mph - N/A   Partly Cloudy
5:54 PM 72.0 °F 55.9 °F 57% 30.04 in 10.0 mi North 8.1 mph - N/A   Partly Cloudy
6:54 PM 66.9 °F 57.0 °F 70% 30.02 in 10.0 mi NNE 6.9 mph - N/A   Partly Cloudy
7:54 PM 63.0 °F 55.9 °F 78% 30.02 in 10.0 mi North 5.8 mph - N/A   Partly Cloudy
8:54 PM 59.0 °F 55.0 °F 87% 30.01 in 10.0 mi NNE 4.6 mph - N/A   Clear
9:54 PM 60.1 °F 55.9 °F 86% 30.01 in 10.0 mi Calm Calm - N/A   Clear
10:54 PM 57.9 °F 54.0 °F 87% 30.00 in 10.0 mi Calm Calm - N/A   Clear
11:54 PM 55.9 °F 54.0 °F 93% 29.99 in 10.0 mi SSE 3.5 mph - N/A   Clear